TimePDT,TemperatureF,Dew PointF,Humidity,Sea Level PressureIn,VisibilityMPH,Wind Direction,Wind SpeedMPH,Gust SpeedMPH,PrecipitationIn,Events,Conditions,WindDirDegrees,DateUTC
12:56 AM,63.0,54.0,72,29.99,10.0,SE,4.6,-,N/A,,Mostly Cloudy,130,2011-10-01 07:56:00
1:56 AM,64.0,54.0,70,29.99,10.0,ESE,5.8,-,N/A,,Overcast,110,2011-10-01 08:56:00
2:56 AM,64.9,54.0,68,29.99,10.0,SE,6.9,-,N/A,,Overcast,140,2011-10-01 09:56:00
3:01 AM,-9999,-9999,N/A,-9999,-9999.0,North,-9999.0,-,N/A,,Unknown,0,2011-10-01 10:01:00
3:56 AM,64.0,54.0,70,29.98,10.0,SE,6.9,-,N/A,,Overcast,130,2011-10-01 10:56:00
4:56 AM,64.9,54.0,68,29.99,10.0,SSE,4.6,-,N/A,,Overcast,150,2011-10-01 11:56:00
5:56 AM,64.0,54.0,70,30.00,10.0,SSE,5.8,-,N/A,,Overcast,150,2011-10-01 12:56:00
6:56 AM,64.0,54.0,70,30.00,10.0,SE,8.1,-,N/A,,Overcast,140,2011-10-01 13:56:00
7:14 AM,64.4,53.6,68,30.00,10.0,SE,6.9,-,N/A,,Scattered Clouds,140,2011-10-01 14:14:00
7:56 AM,64.0,54.0,70,30.02,10.0,SE,9.2,-,N/A,,Clear,130,2011-10-01 14:56:00
8:56 AM,66.0,54.0,65,30.03,10.0,SE,8.1,-,N/A,,Clear,130,2011-10-01 15:56:00
9:56 AM,68.0,54.0,61,30.04,10.0,ESE,6.9,-,N/A,,Mostly Cloudy,120,2011-10-01 16:56:00
10:56 AM,72.0,54.0,53,30.04,10.0,Variable,4.6,-,N/A,,Mostly Cloudy,0,2011-10-01 17:56:00
11:56 AM,73.9,54.0,50,30.03,10.0,NNE,4.6,-,N/A,,Clear,30,2011-10-01 18:56:00
12:56 PM,75.9,54.0,46,30.03,10.0,North,9.2,-,N/A,,Clear,360,2011-10-01 19:56:00
1:00 PM,-9999,-9999,N/A,-9999,-9999.0,North,-9999.0,-,N/A,,Unknown,0,2011-10-01 20:00:00
1:56 PM,75.0,55.9,51,30.02,10.0,NNW,15.0,-,N/A,,Clear,340,2011-10-01 20:56:00
2:56 PM,75.9,55.0,48,30.01,10.0,North,16.1,-,N/A,,Clear,350,2011-10-01 21:56:00
3:56 PM,75.9,55.0,48,30.00,10.0,NNW,16.1,23.0,N/A,,Clear,340,2011-10-01 22:56:00
4:56 PM,73.9,55.0,52,29.99,10.0,NNW,16.1,-,N/A,,Clear,340,2011-10-01 23:56:00
5:56 PM,72.0,54.0,53,29.99,10.0,West,8.1,-,N/A,,Clear,280,2011-10-02 00:56:00
6:56 PM,69.1,54.0,58,30.00,10.0,WNW,5.8,-,N/A,,Clear,300,2011-10-02 01:56:00
7:56 PM,66.9,55.0,66,30.01,10.0,WNW,4.6,-,N/A,,Clear,290,2011-10-02 02:56:00
8:56 PM,66.0,55.9,70,30.03,10.0,NNW,4.6,-,N/A,,Clear,330,2011-10-02 03:56:00
9:56 PM,64.9,55.9,73,30.04,10.0,Calm,Calm,-,N/A,,Clear,0,2011-10-02 04:56:00
10:56 PM,64.9,57.0,75,30.05,10.0,Calm,Calm,-,N/A,,Partly Cloudy,0,2011-10-02 05:56:00
11:56 PM,64.9,55.0,70,30.05,10.0,Calm,Calm,-,N/A,,Clear,0,2011-10-02 06:56:00